Voltar ao catálogo

FENGYUN 1C DEB

AtivoSSO
NORAD 30303·DEBRIS·🇨🇳 China

Lançado May 10, 1999 de Taiyuan Satellite Launch Center

Loading…

Próximas Passagens (próximas 24 horas)

TLE

AtualizadoSource: Space-Track

Época: Sep 14, 2026, 05:02 UTC

1 30303U 99025ZQ  26257.21022641  .00003554  00000-0  13931-2 0  9990
2 30303  99.0116 348.0088 0075144 206.4817 153.2515 14.28529962  8869

Acompanhe FENGYUN 1C DEB em tempo real com AllMySat

Download on the App Store